JH0FOG-13 Weather Reports


Display with metric or nautical units.
time (UTC)temp
F
wind
direction
speed
MPH
gust
MPH
rain 1hr
in
rain 24hr
in
rain mn
in
humidity
%
barometer
mb
20260509210003 54 152 0.0 2.0 0.00 0.26 0.00 79 1021.3
20260509204003 51 0 0.0 0.0 0.00 0.26 0.00 86 1021.1
20260509202003 47 172 0.0 1.0 0.00 0.26 0.00 89 1021.2
20260509200002 47 164 0.0 2.0 0.00 0.26 0.00 90 1021.1
20260509194003 46 201 0.0 1.0 0.00 0.26 0.00 91 1020.7
20260509192003 46 0 0.0 0.0 0.00 0.26 0.00 92 1020.4
20260509190003 46 0 0.0 0.0 0.00 0.26 0.00 92 1020.3
20260509184003 46 0 0.0 0.0 0.00 0.26 0.00 91 1020.0
20260509182003 46 0 0.0 0.0 0.00 0.26 0.00 92 1019.9
20260509180002 46 215 0.0 1.0 0.00 0.26 0.00 92 1019.9
20260509174002 46 198 0.0 1.0 0.00 0.26 0.00 92 1019.5
20260509172002 46 0 0.0 0.0 0.00 0.26 0.00 91 1019.2
20260509170004 47 0 0.0 0.0 0.00 0.26 0.00 91 1019.4
20260509164003 47 0 0.0 0.0 0.00 0.26 0.00 91 1019.4
20260509162003 47 183 0.0 1.0 0.00 0.26 0.00 91 1019.5
20260509160004 47 160 0.0 1.0 0.00 0.26 0.00 89 1019.6
20260509154004 47 167 0.0 1.0 0.00 0.26 0.00 89 1019.8
20260509152004 48 167 0.0 2.0 0.00 0.26 0.00 89 1019.7
20260509150004 48 157 0.0 3.0 0.00 0.26 0.00 89 1019.9
20260509144003 47 0 0.0 0.0 0.00 0.26 0.26 89 1020.0
20260509142003 48 150 0.0 2.0 0.00 0.26 0.26 89 1019.9
20260509140003 48 0 0.0 0.0 0.00 0.26 0.26 88 1019.6
20260509134003 49 0 0.0 0.0 0.00 0.26 0.26 87 1019.5
20260509132003 49 0 0.0 0.0 0.00 0.26 0.26 86 1019.5
20260509130003 50 165 0.0 1.0 0.00 0.26 0.26 85 1019.2
20260509124003 51 0 0.0 0.0 0.00 0.26 0.26 83 1019.2
20260509122003 52 0 0.0 0.0 0.00 0.32 0.26 81 1019.0
20260509120003 53 0 0.0 0.0 0.00 0.35 0.26 79 1018.9
20260509114003 54 0 0.0 0.0 0.00 0.36 0.26 77 1018.7
20260509112003 56 0 0.0 0.0 0.00 0.37 0.26 73 1018.5
20260509110003 57 113 0.0 2.0 0.00 0.38 0.26 68 1018.2
20260509104003 58 356 0.0 3.0 0.00 0.38 0.26 68 1018.0
20260509102003 58 56 0.0 2.0 0.00 0.41 0.26 68 1017.8
20260509100004 59 117 0.0 1.0 0.00 0.46 0.26 69 1017.5
20260509094003 59 99 0.0 1.0 0.00 0.64 0.26 68 1017.2
20260509092003 59 357 1.0 4.0 0.00 0.72 0.26 67 1016.6
20260509090003 60 31 1.0 3.0 0.00 0.74 0.26 67 1016.3
20260509084003 60 137 1.0 6.0 0.00 0.81 0.26 65 1016.0
20260509082003 60 117 1.0 4.0 0.00 0.96 0.26 64 1015.7
20260509080003 61 85 1.0 3.0 0.00 1.14 0.26 63 1015.5
20260509074003 61 327 2.0 10.0 0.00 1.22 0.26 62 1015.3
20260509072003 62 59 1.0 5.0 0.00 1.23 0.26 62 1015.1
20260509070003 62 333 1.0 5.0 0.00 1.27 0.26 62 1015.0
20260509064003 62 330 3.0 8.0 0.00 1.32 0.26 63 1014.9
20260509062003 62 334 2.0 10.0 0.00 1.33 0.26 61 1014.6
20260509060003 62 323 4.0 9.0 0.00 1.35 0.26 62 1014.7
20260509054003 62 297 3.0 9.0 0.00 1.41 0.26 63 1014.8
20260509052003 62 327 5.0 13.0 0.00 1.45 0.26 62 1014.8
20260509050003 63 347 3.0 14.0 0.00 1.45 0.26 63 1014.7
20260509044003 62 326 4.0 14.0 0.00 1.45 0.26 66 1015.0
20260509042003 61 328 4.0 14.0 0.00 1.45 0.26 66 1015.2
20260509040003 62 11 1.0 7.0 0.00 1.45 0.26 67 1015.3
20260509034004 61 335 3.0 9.0 0.00 1.45 0.26 69 1015.3
20260509032003 60 334 2.0 8.0 0.00 1.45 0.26 71 1015.1
20260509030003 58 348 2.0 6.0 0.01 1.45 0.26 76 1015.2
20260509024003 56 344 1.0 5.0 0.05 1.45 0.26 81 1015.4
20260509022003 56 105 1.0 4.0 0.05 1.45 0.26 83 1015.3
20260509020004 56 320 3.0 9.0 0.07 1.44 0.25 80 1015.5
20260509014003 57 325 1.0 9.0 0.03 1.40 0.21 78 1015.2
20260509012003 54 330 1.0 3.0 0.03 1.40 0.21 84 1015.5
20260509010004 55 325 2.0 7.0 0.00 1.37 0.18 77 1015.4
20260509004003 55 328 1.0 3.0 0.00 1.37 0.18 80 1015.4
20260509002004 55 327 2.0 7.0 0.00 1.37 0.18 80 1015.3
20260509000004 54 309 1.0 6.0 0.00 1.37 0.18 81 1015.1
20260508234003 53 325 2.0 5.0 0.00 1.37 0.18 82 1015.1
20260508232003 53 52 1.0 5.0 0.00 1.37 0.18 82 1015.1
20260508230004 52 135 0.0 1.0 0.00 1.37 0.18 85 1014.9
20260508224003 52 334 1.0 6.0 0.05 1.37 0.18 86 1014.5
20260508222003 52 331 3.0 8.0 0.16 1.37 0.18 88 1013.6
20260508220004 52 329 3.0 11.0 0.18 1.37 0.18 89 1012.7
20260508214003 53 71 2.0 10.0 0.11 1.30 0.11 88 1011.9
20260508212003 54 121 2.0 6.0 0.01 1.20 0.01 83 1010.7